Date String (YYYY-MM-DD hh:mm:ss) UTC,Instrument flags,Ambient pressure (hPa),Sample flow (lpm),Bypass flow (lpm),Sample temperature (°C),Ambient temperature (°C),ASC tube jacket temperature (°C),LED temperature (°C),Box temperature (°C),Sample RH (%),Span deviation,Mass concentration (μg/m³),Mass concentration (μg/m³),Mass concentration (μg/m³)
DateTimeUTC,F1_M11,P_M11,Q1_M11,Q2_M11,T1_M11,T2_M11,T3_M11,T4_M11,T5_M11,U1_M11,ZSPAN_M11,X2_M11,X0_M11,X1_M11
2023-04-09 00:00:00,,0829.7,5.00,0.00,26.5,25.0,00.0,34.8,28.1,11.8,0000.0,0003.19,0007.87,0001.69
2023-04-09 00:01:00,,0829.5,4.99,0.00,26.5,25.0,00.0,34.8,28.1,11.9,0000.0,0003.25,0007.77,0001.70
2023-04-09 00:02:00,,0829.6,5.00,0.00,26.5,25.0,00.0,34.8,28.1,11.7,0000.0,0003.29,0007.80,0001.71
2023-04-09 00:03:00,,0829.6,5.00,0.00,26.5,25.0,00.0,34.8,28.1,11.5,0000.0,0003.30,0008.19,0001.70
2023-04-09 00:04:00,,0829.6,5.00,0.00,26.5,24.9,00.0,34.8,28.1,11.6,0000.0,0003.30,0008.38,0001.70
2023-04-09 00:05:00,,0829.6,5.00,0.00,26.5,24.9,00.0,34.8,28.1,11.6,0000.0,0003.30,0008.37,0001.71
2023-04-09 00:06:00,,0829.6,5.00,0.00,26.5,24.9,00.0,34.8,28.0,11.6,0000.0,0003.33,0008.59,0001.71
2023-04-09 00:07:00,,0829.6,5.01,0.00,26.5,24.9,00.0,34.8,28.0,11.7,0000.0,0003.39,0008.91,0001.71
2023-04-09 00:08:00,,0829.7,5.00,0.00,26.5,24.9,00.0,34.8,28.0,11.7,0000.0,0003.42,0009.18,0001.72
2023-04-09 00:09:00,,0829.7,5.00,0.00,26.5,24.9,00.0,34.8,28.1,11.7,0000.0,0003.43,0008.86,0001.72
2023-04-09 00:10:00,,0829.7,5.00,0.00,26.5,24.9,00.0,34.8,28.0,11.9,0000.0,0003.43,0008.79,0001.70
2023-04-09 00:11:00,,0829.7,5.00,0.00,26.5,24.9,00.0,34.8,28.1,11.8,0000.0,0003.43,0008.83,0001.69
2023-04-09 00:12:00,,0829.6,5.00,0.00,26.5,24.9,00.0,34.8,28.0,11.9,0000.0,0003.38,0008.80,0001.68
2023-04-09 00:13:00,,0829.6,5.00,0.00,26.5,24.9,00.0,34.8,28.0,11.8,0000.0,0003.38,0009.76,0001.68
2023-04-09 00:14:00,,0829.7,5.00,0.00,26.5,24.9,00.0,34.8,28.0,11.7,0000.0,0003.37,0009.39,0001.69
2023-04-09 00:15:00,,0829.6,5.00,0.00,26.5,24.9,00.0,34.8,28.0,11.7,0000.0,0003.38,0009.15,0001.69
2023-04-09 00:16:00,,0829.6,5.00,0.00,26.5,24.9,00.0,34.8,28.0,11.8,0000.0,0003.36,0009.10,0001.68
2023-04-09 00:17:00,,0829.6,5.00,0.00,26.5,24.9,00.0,34.8,28.0,11.7,0000.0,0003.40,0009.21,0001.69
2023-04-09 00:18:00,,0829.6,5.00,0.00,26.4,24.9,00.0,34.8,28.0,11.7,0000.0,0003.35,0008.98,0001.70
2023-04-09 00:19:00,,0829.6,5.00,0.00,26.4,24.9,00.0,34.8,28.0,11.7,0000.0,0003.33,0008.91,0001.70
2023-04-09 00:20:00,,0829.6,5.01,0.00,26.4,24.9,00.0,34.8,28.0,11.8,0000.0,0003.36,0009.02,0001.69
2023-04-09 00:21:00,,0829.6,5.00,0.00,26.4,24.9,00.0,34.8,28.0,11.8,0000.0,0003.33,0008.91,0001.70
2023-04-09 00:22:00,,0829.6,4.99,0.00,26.4,24.8,00.0,34.8,28.0,11.7,0000.0,0003.37,0008.99,0001.72
2023-04-09 00:23:00,,0829.7,4.99,0.00,26.4,24.8,00.0,34.8,27.9,11.6,0000.0,0003.41,0009.79,0001.74
2023-04-09 00:24:00,,0829.7,5.01,0.00,26.4,24.8,00.0,34.8,27.9,11.7,0000.0,0003.44,0009.11,0001.74
2023-04-09 00:25:00,,0829.6,5.00,0.00,26.4,24.8,00.0,34.8,28.0,11.8,0000.0,0003.45,0010.01,0001.73
2023-04-09 00:26:00,,0829.6,5.00,0.00,26.4,24.8,00.0,34.8,28.0,11.6,0000.0,0003.47,0010.69,0001.74
2023-04-09 00:27:00,,0829.7,4.99,0.00,26.4,24.8,00.0,34.8,27.9,11.6,0000.0,0003.46,0010.83,0001.74
2023-04-09 00:28:00,,0829.7,4.99,0.00,26.4,24.8,00.0,34.8,27.9,11.7,0000.0,0003.43,0011.29,0001.72
2023-04-09 00:29:00,,0829.7,5.00,0.00,26.4,24.7,00.0,34.8,27.9,11.8,0000.0,0003.44,0012.20,0001.71
2023-04-09 00:30:00,,0829.6,4.99,0.00,26.4,24.8,00.0,34.8,28.0,11.8,0000.0,0003.42,0012.03,0001.70
2023-04-09 00:31:00,,0829.7,5.00,0.00,26.4,24.7,00.0,34.8,27.9,11.7,0000.0,0003.44,0012.04,0001.70
2023-04-09 00:32:00,,0829.7,5.00,0.00,26.4,24.7,00.0,34.8,27.9,11.8,0000.0,0003.48,0012.12,0001.71
2023-04-09 00:33:00,,0829.7,5.01,0.00,26.4,24.7,00.0,34.7,28.0,11.8,0000.0,0003.44,0012.01,0001.70
2023-04-09 00:34:00,,0829.7,4.99,0.00,26.4,24.7,00.0,34.7,28.0,11.8,0000.0,0003.40,0011.25,0001.70
2023-04-09 00:35:00,,0829.7,5.00,0.00,26.3,24.7,00.0,34.7,27.9,11.8,0000.0,0003.36,0010.83,0001.69
2023-04-09 00:36:00,,0829.7,5.01,0.00,26.3,24.7,00.0,34.7,27.9,11.7,0000.0,0003.38,0009.94,0001.69
2023-04-09 00:37:00,,0829.7,5.01,0.00,26.3,24.7,00.0,34.7,27.9,11.8,0000.0,0003.37,0009.48,0001.69
2023-04-09 00:38:00,,0829.7,5.00,0.00,26.4,24.8,00.0,34.7,27.9,11.8,0000.0,0003.41,0009.48,0001.70
2023-04-09 00:39:00,,0829.7,5.00,0.00,26.4,24.8,00.0,34.7,27.9,11.8,0000.0,0003.42,0009.56,0001.69
2023-04-09 00:40:00,,0829.7,4.99,0.00,26.4,24.8,00.0,34.7,28.0,11.9,0000.0,0003.40,0009.62,0001.70
2023-04-09 00:41:00,,0829.7,4.99,0.00,26.4,24.8,00.0,34.7,28.0,11.8,0000.0,0003.41,0009.57,0001.70
2023-04-09 00:42:00,,0829.7,4.99,0.00,26.4,24.8,00.0,34.7,28.0,12.0,0000.0,0003.38,0010.22,0001.70
2023-04-09 00:43:00,,0829.6,5.00,0.00,26.4,24.9,00.0,34.7,28.0,12.1,0000.0,0003.38,0010.75,0001.70
2023-04-09 00:44:00,,0829.6,5.00,0.00,26.4,24.9,00.0,34.7,28.0,11.8,0000.0,0003.41,0012.16,0001.71
2023-04-09 00:45:00,,0829.4,5.00,0.00,26.4,24.8,00.0,34.7,28.0,11.7,0000.0,0003.45,0012.49,0001.71
2023-04-09 00:46:00,,0829.4,5.00,0.00,26.4,24.8,00.0,34.7,28.0,11.3,0000.0,0003.47,0012.62,0001.74
2023-04-09 00:47:00,,0829.5,5.00,0.00,26.4,24.8,00.0,34.7,27.9,11.2,0000.0,0003.45,0012.57,0001.74
2023-04-09 00:48:00,,0829.7,5.01,0.00,26.4,24.8,00.0,34.7,27.9,11.0,0000.0,0003.43,0012.57,0001.75
2023-04-09 00:49:00,,0829.7,5.00,0.00,26.4,24.8,00.0,34.7,27.9,11.3,0000.0,0003.46,0012.75,0001.76
2023-04-09 00:50:00,,0829.8,5.01,0.00,26.4,24.8,00.0,34.7,28.0,11.4,0000.0,0003.45,0012.36,0001.76
2023-04-09 00:51:00,,0829.8,5.00,0.00,26.4,24.8,00.0,34.7,28.0,11.4,0000.0,0003.48,0010.97,0001.76
2023-04-09 00:52:00,,0829.8,4.99,0.00,26.4,24.8,00.0,34.7,28.0,11.4,0000.0,0003.47,0010.85,0001.77
2023-04-09 00:53:00,,0829.8,5.01,0.00,26.4,24.8,00.0,34.7,28.0,11.5,0000.0,0003.46,0010.29,0001.77
2023-04-09 00:54:00,,0829.9,5.01,0.00,26.4,24.8,00.0,34.7,28.0,11.5,0000.0,0003.46,0009.93,0001.77
2023-04-09 00:55:00,,0829.9,5.00,0.00,26.4,24.9,00.0,34.7,28.0,11.4,0000.0,0003.47,0008.57,0001.75
2023-04-09 00:56:00,,0829.9,4.99,0.00,26.4,24.9,00.0,34.7,28.0,11.4,0000.0,0003.41,0008.44,0001.75
2023-04-09 00:57:00,,0830.0,4.99,0.00,26.4,24.9,00.0,34.7,28.0,11.6,0000.0,0003.41,0008.53,0001.75
2023-04-09 00:58:00,,0830.0,5.00,0.00,26.4,24.9,00.0,34.7,28.0,11.6,0000.0,0003.42,0008.59,0001.74
2023-04-09 00:59:00,,0829.9,5.01,0.00,26.4,24.9,00.0,34.7,28.0,11.6,0000.0,0003.40,0008.34,0001.73
